Weather in Bilibino

Russia / Chukotka Autonomous Okrug     68°03′25″N   166°27′04″E
temp.,
°C
wind,
m/s
gust,
m/s
humid.,
%
clouds,
%
prec.,
mm/h
press.,
hPa
HPBL,
m
16 april, fri
fri1600:00−15e2286100 0.0 101459
03:00−16e2191100 0.0 101218
06:00−16e1191100 0.0 101144
09:00−13e2186100 0.0 1009157
12:00−9se2281100 0.0 1007262
15:00−6ese2287100 0.1 1006323
18:00−5e1286100 0.2 1004261
21:00−7ene1197100 0.3 100413
17 april, sat
sat1700:00−8ese1196100 1.0 100422
03:00−8e1196100 1.0 100421
06:00−8ese1195100 2.6 100660
09:00−6ssw2394100 1.6 1007319
12:00−4wsw2388100 2.3 1008554
15:00−4sw567599 0.6 10091032
18:00−6ssw328283 0.7 101034
21:00−13ne228891 0.0 101110
18 april, sun
sun1800:00−16ne2294100 0.0 101110
03:00−17ne2195100 0.0 10109
06:00−17ene1195100 0.0 10119
09:00−11sse119012 0.0 101080
12:00−6sse24785 0.0 1009355
15:00−3sse35630 0.0 1009611
18:00−4se2278100 0.0 100913
21:00−13e21895 0.0 101210
19 april, mon
mon1900:00−18e229926 0.0 10159
03:00−20ene2210030 0.0 10179
06:00−20ene2298100 0.0 101811
09:00−11ese127769 0.0 101798
12:00−7se226734 0.0 1014230
15:00−4se23661 0.0 1014358
18:00−5se118097 0.0 101521
21:00−7se1197100 0.4 101817
20 april, tue
tue2000:00−7e1197100 1.7 101912
03:00−7wsw349695 1.1 1023193
06:00−10wsw3495100 1.3 1029131
09:00−10wsw338712 0.0 1033207
12:00−9wsw237618 0.0 1035541
15:00−8wsw237160 0.0 1037646
18:00−8nne11805 0.0 103838
21:00−18ne32925 0.0 104010